Location: Ferma
(41.9500°N, 44.5167°E)
Time: 20:10:22
(UTC+00:00)

FENGYUN 1C DEB - Pass Details

Date: 16 August 2022
Orbit: 606 x 930 km, 99.7° (Epoch: 01 October)

Event Time Altitude Azimuth Distance (km) Brightness Sun altitude
Exits shadow 16:54:48 13° 113° (ESE) 2,146 ? -10.0°
Maximum altitude 16:58:27 26° 62° (ENE) 1,548 ? -10.6°
Drops below altitude 10° 17:02:58 10° 7° (N) 2,500 ? -11.3°
Sets 17:05:46 0° 356° (N) 3,487 ? -11.7°
